Time,TemperatureF,DewpointF,PressureIn,WindDirection,WindDirectionDegrees,WindSpeedMPH,WindSpeedGustMPH,Humidity,HourlyPrecipIn,Conditions,Clouds,dailyrainin,SoftwareType,DateUTC
2013-02-04 00:41:00,27.0,17.0,-100.00,SE,141,4.0,5.0,65,0.00,,,-99.99,,2013-02-04 07:41:00,
2013-02-04 00:52:00,26.0,17.0,-100.00,South,185,1.0,2.0,69,0.00,,,-99.99,,2013-02-04 07:52:00,
2013-02-04 01:01:00,26.0,17.0,-100.00,South,185,1.0,2.0,69,0.00,,,-99.99,,2013-02-04 08:01:00,
2013-02-04 01:11:00,24.0,17.0,-100.00,SSE,155,3.0,5.0,74,0.00,,,-99.99,,2013-02-04 08:11:00,
2013-02-04 01:21:00,24.0,17.0,-100.00,SE,130,5.0,7.0,74,0.00,,,-99.99,,2013-02-04 08:21:00,
2013-02-04 01:31:00,24.0,17.0,-100.00,SE,130,5.0,7.0,74,0.00,,,-99.99,,2013-02-04 08:31:00,
2013-02-04 01:41:00,24.0,17.0,-100.00,SE,130,5.0,7.0,74,0.00,,,-99.99,,2013-02-04 08:41:00,
2013-02-04 02:21:00,22.0,18.0,-100.00,ESE,120,5.0,7.0,83,0.00,,,-99.99,,2013-02-04 09:21:00,
2013-02-04 02:31:00,22.0,18.0,-100.00,ESE,120,5.0,7.0,83,0.00,,,-99.99,,2013-02-04 09:31:00,
2013-02-04 02:41:00,22.0,18.0,-100.00,ESE,120,5.0,6.0,82,0.00,,,-99.99,,2013-02-04 09:41:00,
2013-02-04 02:52:00,23.0,18.0,-100.00,ESE,110,8.0,12.0,81,0.00,,,-99.99,,2013-02-04 09:52:00,
2013-02-04 03:01:00,23.0,18.0,-100.00,ESE,110,8.0,12.0,81,0.00,,,-99.99,,2013-02-04 10:01:00,
2013-02-04 03:11:00,23.0,18.0,-100.00,ESE,110,8.0,12.0,81,0.00,,,-99.99,,2013-02-04 10:11:00,
2013-02-04 03:42:00,21.0,18.0,-100.00,ESE,120,5.0,6.0,90,0.00,,,-99.99,,2013-02-04 10:42:00,
2013-02-04 03:52:00,21.0,19.0,-100.00,ESE,121,6.0,6.0,91,0.00,,,-99.99,,2013-02-04 10:52:00,
2013-02-04 04:00:00,21.0,19.0,-100.00,East,96,3.0,6.0,90,0.00,,,-99.99,,2013-02-04 11:00:00,
2013-02-04 04:01:00,21.0,19.0,-100.00,ESE,121,6.0,6.0,91,0.00,,,-99.99,,2013-02-04 11:01:00,
2013-02-04 04:11:00,21.0,19.0,-100.00,SE,126,6.0,8.0,90,0.00,,,-99.99,,2013-02-04 11:11:00,
2013-02-04 04:22:00,21.0,19.0,-100.00,SE,131,5.0,7.0,91,0.00,,,-99.99,,2013-02-04 11:22:00,
2013-02-04 04:32:00,21.0,19.0,-100.00,SE,131,5.0,7.0,91,0.00,,,-99.99,,2013-02-04 11:32:00,
2013-02-04 04:42:00,21.0,19.0,-100.00,SE,131,5.0,7.0,91,0.00,,,-99.99,,2013-02-04 11:42:00,
2013-02-04 04:52:00,21.0,19.0,-100.00,East,96,3.0,6.0,90,0.00,,,-99.99,,2013-02-04 11:52:00,
2013-02-04 05:12:00,21.0,18.0,-100.00,SE,127,5.0,6.0,90,0.00,,,-99.99,,2013-02-04 12:12:00,
2013-02-04 05:21:00,21.0,18.0,-100.00,SE,127,2.0,4.0,91,0.00,,,-99.99,,2013-02-04 12:21:00,
2013-02-04 05:32:00,21.0,18.0,-100.00,SE,127,2.0,4.0,91,0.00,,,-99.99,,2013-02-04 12:32:00,
2013-02-04 05:42:00,22.0,18.0,-100.00,ESE,120,2.0,3.0,87,0.00,,,-99.99,,2013-02-04 12:42:00,
2013-02-04 05:53:00,24.0,19.0,-100.00,ESE,107,2.0,4.0,82,0.00,,,-99.99,,2013-02-04 12:53:00,
2013-02-04 06:02:00,24.0,19.0,-100.00,ESE,107,2.0,4.0,82,0.00,,,-99.99,,2013-02-04 13:02:00,
2013-02-04 06:11:00,26.0,20.0,-100.00,SSE,151,4.0,7.0,76,0.00,,,-99.99,,2013-02-04 13:11:00,
2013-02-04 06:21:00,27.0,20.0,-100.00,SW,233,7.0,13.0,75,0.00,,,-99.99,,2013-02-04 13:21:00,
2013-02-04 06:32:00,27.0,20.0,-100.00,SW,233,7.0,13.0,75,0.00,,,-99.99,,2013-02-04 13:32:00,
2013-02-04 06:42:00,26.0,20.0,-100.00,SE,131,6.0,10.0,77,0.00,,,-99.99,,2013-02-04 13:42:00,
2013-02-04 06:52:00,27.0,20.0,-100.00,SE,136,4.0,8.0,75,0.00,,,-99.99,,2013-02-04 13:52:00,
2013-02-04 07:02:00,25.0,19.0,-100.00,SE,140,3.0,5.0,78,0.00,,,-99.99,,2013-02-04 14:02:00,
2013-02-04 07:11:00,25.0,19.0,-100.00,SE,140,3.0,5.0,78,0.00,,,-99.99,,2013-02-04 14:11:00,
2013-02-04 07:21:00,24.0,19.0,-100.00,SE,130,4.0,6.0,81,0.00,,,-99.99,,2013-02-04 14:21:00,
2013-02-04 07:32:00,24.0,19.0,-100.00,SE,130,4.0,6.0,81,0.00,,,-99.99,,2013-02-04 14:32:00,
2013-02-04 07:42:00,24.0,20.0,-100.00,SE,140,5.0,7.0,83,0.00,,,-99.99,,2013-02-04 14:42:00,
2013-02-04 07:52:00,25.0,20.0,-100.00,ESE,119,4.0,7.0,82,0.00,,,-99.99,,2013-02-04 14:52:00,
2013-02-04 08:03:00,25.0,20.0,-100.00,ESE,119,4.0,7.0,82,0.00,,,-99.99,,2013-02-04 15:03:00,
2013-02-04 08:12:00,24.0,20.0,-100.00,ESE,119,4.0,6.0,86,0.00,,,-99.99,,2013-02-04 15:12:00,
2013-02-04 08:23:00,24.0,22.0,-100.00,East,96,4.0,9.0,92,0.00,,,-99.99,,2013-02-04 15:23:00,
2013-02-04 08:33:00,24.0,22.0,-100.00,East,96,4.0,9.0,92,0.00,,,-99.99,,2013-02-04 15:33:00,
2013-02-04 08:43:00,25.0,23.0,-100.00,East,97,4.0,6.0,93,0.00,,,-99.99,,2013-02-04 15:43:00,
2013-02-04 08:52:00,25.0,24.0,-100.00,SSE,151,7.0,9.0,95,0.00,,,-99.99,,2013-02-04 15:52:00,
2013-02-04 09:02:00,25.0,24.0,-100.00,SSE,151,7.0,9.0,95,0.00,,,-99.99,,2013-02-04 16:02:00,
2013-02-04 09:11:00,25.0,24.0,-100.00,SE,137,4.0,6.0,96,0.00,,,-99.99,,2013-02-04 16:11:00,
2013-02-04 09:22:00,24.0,23.0,-100.00,SE,137,4.0,6.0,96,0.00,,,-99.99,,2013-02-04 16:22:00,
2013-02-04 09:32:00,24.0,23.0,-100.00,SE,137,4.0,6.0,96,0.00,,,-99.99,,2013-02-04 16:32:00,
2013-02-04 09:42:00,24.0,23.0,-100.00,SE,127,6.0,7.0,96,0.00,,,-99.99,,2013-02-04 16:42:00,
2013-02-04 09:52:00,24.0,23.0,-100.00,SE,126,3.0,4.0,97,0.00,,,-99.99,,2013-02-04 16:52:00,
2013-02-04 10:02:00,24.0,23.0,-100.00,SE,126,3.0,4.0,97,0.00,,,-99.99,,2013-02-04 17:02:00,
2013-02-04 10:11:00,24.0,24.0,-100.00,ESE,120,6.0,11.0,96,0.00,,,-99.99,,2013-02-04 17:11:00,
2013-02-04 10:21:00,24.0,24.0,-100.00,SSE,152,4.0,6.0,99,0.00,,,-99.99,,2013-02-04 17:21:00,
2013-02-04 10:31:00,24.0,24.0,-100.00,SSE,152,4.0,6.0,99,0.00,,,-99.99,,2013-02-04 17:31:00,
2013-02-04 10:42:00,25.0,25.0,-100.00,South,176,3.0,4.0,99,0.00,,,-99.99,,2013-02-04 17:42:00,
2013-02-04 10:52:00,25.0,24.0,-100.00,SE,141,4.0,5.0,98,0.00,,,-99.99,,2013-02-04 17:52:00,
2013-02-04 11:03:00,25.0,24.0,-100.00,SE,141,4.0,5.0,98,0.00,,,-99.99,,2013-02-04 18:03:00,
2013-02-04 11:11:00,25.0,25.0,-100.00,SE,128,4.0,5.0,100,0.00,,,-99.99,,2013-02-04 18:11:00,
2013-02-04 11:22:00,25.0,25.0,-100.00,SE,143,4.0,6.0,100,0.00,,,-99.99,,2013-02-04 18:22:00,
2013-02-04 11:30:00,27.0,27.0,-100.00,SE,144,4.0,6.0,100,0.04,,,-99.99,,2013-02-04 18:30:00,
2013-02-04 11:31:00,25.0,25.0,-100.00,SE,143,4.0,6.0,100,0.00,,,-99.99,,2013-02-04 18:31:00,
2013-02-04 11:41:00,26.0,26.0,-100.00,SE,131,3.0,4.0,100,0.00,,,-99.99,,2013-02-04 18:41:00,
2013-02-04 11:52:00,27.0,27.0,-100.00,SE,140,3.0,6.0,100,0.00,,,-99.99,,2013-02-04 18:52:00,
2013-02-04 12:02:00,27.0,27.0,-100.00,SE,140,3.0,6.0,100,0.00,,,-99.99,,2013-02-04 19:02:00,
2013-02-04 12:11:00,27.0,27.0,-100.00,SE,144,4.0,6.0,100,0.04,,,-99.99,,2013-02-04 19:11:00,
2013-02-04 12:22:00,27.0,27.0,-100.00,SE,144,4.0,6.0,100,0.04,,,-99.99,,2013-02-04 19:22:00,
2013-02-04 12:42:00,27.0,27.0,-100.00,SE,143,2.0,4.0,100,0.00,,,-99.99,,2013-02-04 19:42:00,
2013-02-04 12:52:00,27.0,27.0,-100.00,ESE,119,6.0,7.0,100,0.00,,,-99.99,,2013-02-04 19:52:00,
2013-02-04 13:02:00,27.0,27.0,-100.00,ESE,119,6.0,7.0,100,0.00,,,-99.99,,2013-02-04 20:02:00,
2013-02-04 13:12:00,27.0,27.0,-100.00,ESE,106,5.0,8.0,100,0.00,,,-99.99,,2013-02-04 20:12:00,
2013-02-04 13:21:00,27.0,27.0,-100.00,SE,138,4.0,5.0,100,0.00,,,-99.99,,2013-02-04 20:21:00,
2013-02-04 13:30:00,29.0,29.0,-100.00,West,260,3.0,9.0,100,0.00,,,-99.99,,2013-02-04 20:30:00,
2013-02-04 13:32:00,27.0,27.0,-100.00,SE,138,4.0,5.0,100,0.00,,,-99.99,,2013-02-04 20:32:00,
2013-02-04 13:42:00,28.0,28.0,-100.00,SE,140,3.0,5.0,100,0.00,,,-99.99,,2013-02-04 20:42:00,
2013-02-04 13:52:00,28.0,28.0,-100.00,ESE,109,3.0,6.0,100,0.00,,,-99.99,,2013-02-04 20:52:00,
2013-02-04 14:01:00,28.0,28.0,-100.00,ESE,109,3.0,6.0,100,0.00,,,-99.99,,2013-02-04 21:01:00,
2013-02-04 14:11:00,29.0,29.0,-100.00,West,260,3.0,9.0,100,0.00,,,-99.99,,2013-02-04 21:11:00,
2013-02-04 14:22:00,29.0,29.0,-100.00,West,260,3.0,9.0,100,0.00,,,-99.99,,2013-02-04 21:22:00,
2013-02-04 14:43:00,30.0,29.0,-100.00,NW,304,5.0,8.0,96,0.00,,,-99.99,,2013-02-04 21:43:00,
2013-02-04 14:52:00,30.0,29.0,-100.00,SW,230,4.0,10.0,96,0.00,,,-99.99,,2013-02-04 21:52:00,
2013-02-04 15:02:00,30.0,29.0,-100.00,SW,230,4.0,10.0,96,0.00,,,-99.99,,2013-02-04 22:02:00,
2013-02-04 15:12:00,30.0,29.0,-100.00,SW,230,4.0,10.0,96,0.00,,,-99.99,,2013-02-04 22:12:00,
2013-02-04 15:21:00,30.0,28.0,-100.00,SSW,202,3.0,8.0,92,0.00,,,-99.99,,2013-02-04 22:21:00,
2013-02-04 15:32:00,30.0,28.0,-100.00,SSW,202,3.0,8.0,92,0.00,,,-99.99,,2013-02-04 22:32:00,
2013-02-04 15:41:00,30.0,28.0,-100.00,South,179,1.0,2.0,92,0.00,,,-99.99,,2013-02-04 22:41:00,
2013-02-04 15:52:00,30.0,28.0,-100.00,WSW,251,2.0,4.0,92,0.00,,,-99.99,,2013-02-04 22:52:00,
2013-02-04 16:00:00,31.0,27.0,-100.00,WSW,237,4.0,8.0,86,0.00,,,-99.99,,2013-02-04 23:00:00,
2013-02-04 16:01:00,30.0,28.0,-100.00,WSW,251,2.0,4.0,92,0.00,,,-99.99,,2013-02-04 23:01:00,
2013-02-04 16:11:00,31.0,28.0,-100.00,North,6,3.0,4.0,91,0.00,,,-99.99,,2013-02-04 23:11:00,
2013-02-04 16:21:00,31.0,28.0,-100.00,NW,320,6.0,11.0,87,0.00,,,-99.99,,2013-02-04 23:21:00,
2013-02-04 16:32:00,31.0,28.0,-100.00,NW,320,6.0,11.0,87,0.00,,,-99.99,,2013-02-04 23:32:00,
2013-02-04 16:41:00,31.0,27.0,-100.00,WSW,237,4.0,8.0,86,0.00,,,-99.99,,2013-02-04 23:41:00,
2013-02-04 16:52:00,31.0,27.0,-100.00,WSW,237,4.0,8.0,86,0.00,,,-99.99,,2013-02-04 23:52:00,
2013-02-04 17:11:00,31.0,27.0,-100.00,NNW,329,1.0,2.0,86,0.00,,,-99.99,,2013-02-05 00:11:00,
2013-02-04 17:21:00,31.0,27.0,-100.00,SW,230,1.0,2.0,86,0.00,,,-99.99,,2013-02-05 00:21:00,
2013-02-04 17:31:00,31.0,27.0,-100.00,SW,230,1.0,2.0,86,0.00,,,-99.99,,2013-02-05 00:31:00,
2013-02-04 17:42:00,31.0,27.0,-100.00,West,278,2.0,6.0,88,0.00,,,-99.99,,2013-02-05 00:42:00,
2013-02-04 17:52:00,31.0,27.0,-100.00,West,270,2.0,4.0,87,0.00,,,-99.99,,2013-02-05 00:52:00,
2013-02-04 18:01:00,31.0,27.0,-100.00,West,270,2.0,4.0,87,0.00,,,-99.99,,2013-02-05 01:01:00,
2013-02-04 18:11:00,31.0,27.0,-100.00,NW,323,2.0,3.0,87,0.00,,,-99.99,,2013-02-05 01:11:00,
2013-02-04 18:21:00,31.0,27.0,-100.00,NW,312,3.0,4.0,88,0.00,,,-99.99,,2013-02-05 01:21:00,
2013-02-04 18:32:00,31.0,27.0,-100.00,NW,312,3.0,4.0,88,0.00,,,-99.99,,2013-02-05 01:32:00,
2013-02-04 18:42:00,31.0,27.0,-100.00,WNW,302,3.0,9.0,87,0.00,,,-99.99,,2013-02-05 01:42:00,
2013-02-04 18:52:00,31.0,27.0,-100.00,NNW,342,7.0,9.0,86,0.00,,,-99.99,,2013-02-05 01:52:00,
2013-02-04 19:01:00,31.0,27.0,-100.00,NNW,342,7.0,9.0,86,0.00,,,-99.99,,2013-02-05 02:01:00,
2013-02-04 19:11:00,31.0,27.0,-100.00,NW,316,6.0,11.0,86,0.00,,,-99.99,,2013-02-05 02:11:00,
2013-02-04 19:21:00,31.0,27.0,-100.00,West,277,5.0,9.0,85,0.00,,,-99.99,,2013-02-05 02:21:00,
2013-02-04 19:31:00,31.0,27.0,-100.00,West,277,5.0,9.0,85,0.00,,,-99.99,,2013-02-05 02:31:00,
2013-02-04 19:41:00,30.0,26.0,-100.00,SSW,198,3.0,5.0,87,0.00,,,-99.99,,2013-02-05 02:41:00,
2013-02-04 19:52:00,29.0,26.0,-100.00,South,172,2.0,5.0,89,0.00,,,-99.99,,2013-02-05 02:52:00,
2013-02-04 20:01:00,29.0,26.0,-100.00,South,172,2.0,5.0,89,0.00,,,-99.99,,2013-02-05 03:01:00,
2013-02-04 20:11:00,30.0,27.0,-100.00,South,182,4.0,7.0,88,0.00,,,-99.99,,2013-02-05 03:11:00,
2013-02-04 20:21:00,29.0,26.0,-100.00,SSW,196,4.0,6.0,88,0.00,,,-99.99,,2013-02-05 03:21:00,
2013-02-04 20:31:00,29.0,26.0,-100.00,SSW,196,4.0,6.0,88,0.00,,,-99.99,,2013-02-05 03:31:00,
2013-02-04 20:42:00,29.0,26.0,-100.00,South,191,6.0,10.0,87,0.00,,,-99.99,,2013-02-05 03:42:00,
2013-02-04 20:52:00,29.0,26.0,-100.00,SSW,198,3.0,6.0,87,0.00,,,-99.99,,2013-02-05 03:52:00,
2013-02-04 21:01:00,29.0,26.0,-100.00,SSW,198,3.0,6.0,87,0.00,,,-99.99,,2013-02-05 04:01:00,
2013-02-04 21:11:00,30.0,26.0,-100.00,SSW,210,4.0,9.0,87,0.00,,,-99.99,,2013-02-05 04:11:00,
2013-02-04 21:21:00,29.0,26.0,-100.00,SSW,199,2.0,4.0,88,0.00,,,-99.99,,2013-02-05 04:21:00,
2013-02-04 21:31:00,29.0,26.0,-100.00,SSW,199,2.0,4.0,88,0.00,,,-99.99,,2013-02-05 04:31:00,
2013-02-04 21:42:00,29.0,26.0,-100.00,South,184,3.0,5.0,89,0.00,,,-99.99,,2013-02-05 04:42:00,
2013-02-04 21:52:00,29.0,26.0,-100.00,SSW,198,2.0,4.0,88,0.00,,,-99.99,,2013-02-05 04:52:00,
2013-02-04 22:00:00,28.0,26.0,-100.00,South,176,2.0,4.0,91,0.00,,,-99.99,,2013-02-05 05:00:00,
2013-02-04 22:02:00,29.0,26.0,-100.00,SSW,198,2.0,4.0,88,0.00,,,-99.99,,2013-02-05 05:02:00,
2013-02-04 22:11:00,29.0,26.0,-100.00,SSW,192,1.0,2.0,89,0.00,,,-99.99,,2013-02-05 05:11:00,
2013-02-04 22:21:00,28.0,26.0,-100.00,South,174,2.0,4.0,89,0.00,,,-99.99,,2013-02-05 05:21:00,
2013-02-04 22:31:00,28.0,26.0,-100.00,South,174,2.0,4.0,89,0.00,,,-99.99,,2013-02-05 05:31:00,
2013-02-04 22:42:00,28.0,26.0,-100.00,South,176,2.0,4.0,91,0.00,,,-99.99,,2013-02-05 05:42:00,
2013-02-04 22:52:00,28.0,26.0,-100.00,South,176,2.0,4.0,91,0.00,,,-99.99,,2013-02-05 05:52:00,
2013-02-04 23:11:00,29.0,26.0,-100.00,SSE,162,4.0,6.0,88,0.00,,,-99.99,,2013-02-05 06:11:00,
2013-02-04 23:21:00,30.0,26.0,-100.00,South,184,5.0,6.0,87,0.00,,,-99.99,,2013-02-05 06:21:00,
2013-02-04 23:30:00,26.0,26.0,-100.00,SE,133,4.0,5.0,98,0.00,,,-99.99,,2013-02-05 06:30:00,
2013-02-04 23:31:00,30.0,26.0,-100.00,South,184,5.0,6.0,87,0.00,,,-99.99,,2013-02-05 06:31:00,
2013-02-04 23:41:00,28.0,26.0,-100.00,SE,140,4.0,5.0,93,0.00,,,-99.99,,2013-02-05 06:41:00,
2013-02-04 23:52:00,28.0,26.0,-100.00,SE,140,4.0,5.0,93,0.00,,,-99.99,,2013-02-05 06:52:00,